When you browse on this site, cookies collect data to enhance your experience and personalize the content and advertising you see.
Visit our Privacy Policy to learn more. By continuing to use the site, you agree to this use of cookies and data.
  • en France
  • Liste des pays
  • À 7 jours
  • Température de l'eau
  • Carte satellitaire
  • Carte météo
  • Widgets météo
  • user-avatar
    Se connecter

    Météo par heure à Kaboul

    Ce jour, 24 Mai, Vendredi

    Heure Température Précipitation Vent Pression Humidité
    00:00 +13°C° 0.1 mm 2 m/s 607 mmHg 79%
    01:00 +13°C° 0.1 mm 2 m/s 607 mmHg 79%
    02:00 +13°C° 0.1 mm 2 m/s 606 mmHg 78%
    03:00 +12°C° 0.2 mm 2 m/s 606 mmHg 78%
    04:00 +12°C° 0.2 mm 2 m/s 606 mmHg 77%
    05:00 +12°C° 0.2 mm 1 m/s 606 mmHg 77%
    06:00 +13°C° 0.2 mm 1 m/s 607 mmHg 71%
    07:00 +13°C° 0.2 mm 2 m/s 607 mmHg 65%
    08:00 +14°C° 0.2 mm 2 m/s 608 mmHg 59%
    09:00 +15°C° 0.1 mm 2 m/s 608 mmHg 54%
    10:00 +17°C° 0.1 mm 2 m/s 609 mmHg 50%
    11:00 +18°C° 0.1 mm 2 m/s 609 mmHg 45%
    12:00 +19°C° 0.1 mm 2 m/s 610 mmHg 42%
    13:00 +20°C° 0.1 mm 2 m/s 610 mmHg 39%
    14:00 +20°C° 0.1 mm 2 m/s 610 mmHg 35%
    15:00 +20°C° 0.1 mm 2 m/s 610 mmHg 35%
    16:00 +20°C° 0.1 mm 2 m/s 610 mmHg 35%
    17:00 +21°C° 0.1 mm 2 m/s 610 mmHg 35%
    18:00 +20°C° 0 mm 2 m/s 610 mmHg 36%
    19:00 +19°C° 0 mm 2 m/s 610 mmHg 38%
    20:00 +20°C° 0 mm 1 m/s 610 mmHg 40%
    21:00 +19°C° 0 mm 1 m/s 610 mmHg 42%
    22:00 +18°C° 0 mm 1 m/s 611 mmHg 44%
    23:00 +18°C° 0 mm 1 m/s 611 mmHg 46%

    Demain, 25 Mai, Samedi

    Heure Température Précipitation Vent Pression Humidité
    00:00 +16°C° 0 mm 1 m/s 610 mmHg 47%
    01:00 +16°C° 0 mm 1 m/s 610 mmHg 47%
    02:00 +15°C° 0 mm 1 m/s 610 mmHg 48%
    03:00 +15°C° 0 mm 1 m/s 610 mmHg 48%
    04:00 +14°C° 0 mm 2 m/s 609 mmHg 48%
    05:00 +14°C° 0 mm 2 m/s 609 mmHg 48%
    06:00 +15°C° 0 mm 2 m/s 610 mmHg 43%
    07:00 +17°C° 0 mm 2 m/s 610 mmHg 37%
    08:00 +18°C° 0 mm 2 m/s 611 mmHg 32%
    09:00 +20°C° 0 mm 2 m/s 611 mmHg 28%
    10:00 +21°C° 0 mm 2 m/s 612 mmHg 24%
    11:00 +23°C° 0 mm 2 m/s 612 mmHg 19%
    12:00 +24°C° 0 mm 2 m/s 612 mmHg 19%
    13:00 +25°C° 0 mm 2 m/s 612 mmHg 18%
    14:00 +26°C° 0 mm 3 m/s 612 mmHg 17%
    15:00 +26°C° 0 mm 3 m/s 612 mmHg 18%
    16:00 +26°C° 0 mm 4 m/s 611 mmHg 18%
    17:00 +26°C° 0 mm 5 m/s 611 mmHg 18%
    18:00 +23°C° 0 mm 5 m/s 611 mmHg 21%
    19:00 +22°C° 0 mm 4 m/s 611 mmHg 23%
    20:00 +20°C° 0 mm 4 m/s 610 mmHg 26%
    21:00 +19°C° 0 mm 4 m/s 610 mmHg 28%
    22:00 +19°C° 0 mm 3 m/s 610 mmHg 30%
    23:00 +18°C° 0 mm 2 m/s 610 mmHg 32%

    Après-demain, 26 Mai, Dimanche

    Heure Température Précipitation Vent Pression Humidité
    00:00 +17°C° 0 mm 2 m/s 610 mmHg 34%
    01:00 +16°C° 0 mm 2 m/s 610 mmHg 36%
    02:00 +16°C° 0 mm 2 m/s 610 mmHg 38%
    03:00 +15°C° 0 mm 2 m/s 609 mmHg 39%
    04:00 +15°C° 0 mm 2 m/s 609 mmHg 40%
    05:00 +14°C° 0 mm 2 m/s 609 mmHg 41%
    06:00 +15°C° 0 mm 2 m/s 610 mmHg 36%
    07:00 +16°C° 0 mm 3 m/s 610 mmHg 32%
    08:00 +18°C° 0 mm 3 m/s 611 mmHg 27%
    09:00 +19°C° 0 mm 3 m/s 611 mmHg 24%
    10:00 +20°C° 0 mm 3 m/s 612 mmHg 21%
    11:00 +22°C° 0 mm 3 m/s 612 mmHg 18%
    12:00 +23°C° 0 mm 4 m/s 612 mmHg 16%
    13:00 +23°C° 0 mm 4 m/s 612 mmHg 15%
    14:00 +25°C° 0 mm 4 m/s 612 mmHg 13%
    15:00 +25°C° 0 mm 5 m/s 612 mmHg 12%
    16:00 +25°C° 0 mm 5 m/s 612 mmHg 12%
    17:00 +25°C° 0 mm 5 m/s 612 mmHg 12%
    18:00 +23°C° 0 mm 4 m/s 612 mmHg 14%
    19:00 +21°C° 0 mm 4 m/s 612 mmHg 17%
    20:00 +20°C° 0 mm 3 m/s 612 mmHg 20%
    21:00 +19°C° 0 mm 2 m/s 612 mmHg 22%
    22:00 +18°C° 0 mm 2 m/s 611 mmHg 24%
    23:00 +18°C° 0 mm 1 m/s 611 mmHg 26%

    27 Mai, Lundi

    Heure Température Précipitation Vent Pression Humidité
    00:00 +16°C° 0 mm 1 m/s 611 mmHg 27%
    01:00 +16°C° 0 mm 1 m/s 611 mmHg 27%
    02:00 +15°C° 0 mm 1 m/s 610 mmHg 28%
    03:00 +15°C° 0 mm 2 m/s 610 mmHg 28%
    04:00 +14°C° 0 mm 2 m/s 610 mmHg 29%
    05:00 +14°C° 0 mm 2 m/s 609 mmHg 29%
    06:00 +15°C° 0 mm 2 m/s 610 mmHg 26%
    07:00 +17°C° 0 mm 2 m/s 611 mmHg 23%
    08:00 +19°C° 0 mm 1 m/s 611 mmHg 19%
    09:00 +21°C° 0 mm 1 m/s 612 mmHg 17%
    10:00 +23°C° 0 mm 1 m/s 612 mmHg 14%
    11:00 +24°C° 0 mm 1 m/s 612 mmHg 11%
    12:00 +25°C° 0 mm 1 m/s 612 mmHg 10%
    13:00 +26°C° 0 mm 1 m/s 612 mmHg 10%
    14:00 +27°C° 0 mm 2 m/s 612 mmHg 9%
    15:00 +27°C° 0 mm 2 m/s 612 mmHg 9%
    16:00 +27°C° 0 mm 2 m/s 612 mmHg 9%
    17:00 +28°C° 0 mm 3 m/s 612 mmHg 9%
    18:00 +26°C° 0 mm 2 m/s 612 mmHg 11%
    19:00 +25°C° 0 mm 2 m/s 612 mmHg 12%
    20:00 +23°C° 0 mm 2 m/s 612 mmHg 14%
    21:00 +21°C° 0 mm 2 m/s 612 mmHg 16%
    22:00 +20°C° 0 mm 2 m/s 611 mmHg 17%
    23:00 +20°C° 0 mm 1 m/s 611 mmHg 18%

    28 Mai, Mardi

    Heure Température Précipitation Vent Pression Humidité
    00:00 +19°C° 0 mm 1 m/s 611 mmHg 19%
    01:00 +19°C° 0 mm 1 m/s 610 mmHg 20%
    02:00 +18°C° 0 mm 1 m/s 610 mmHg 20%
    03:00 +16°C° 0 mm 1 m/s 609 mmHg 21%
    04:00 +16°C° 0 mm 1 m/s 609 mmHg 22%
    05:00 +15°C° 0 mm 1 m/s 609 mmHg 22%
    06:00 +18°C° 0 mm 1 m/s 610 mmHg 20%
    07:00 +20°C° 0 mm 1 m/s 611 mmHg 18%
    08:00 +22°C° 0 mm 1 m/s 612 mmHg 16%
    09:00 +23°C° 0 mm 1 m/s 612 mmHg 14%
    10:00 +24°C° 0 mm 1 m/s 612 mmHg 12%
    11:00 +26°C° 0 mm 1 m/s 613 mmHg 10%
    12:00 +27°C° 0 mm 1 m/s 613 mmHg 10%
    13:00 +28°C° 0 mm 2 m/s 613 mmHg 9%
    14:00 +29°C° 0 mm 2 m/s 613 mmHg 9%
    15:00 +29°C° 0 mm 3 m/s 613 mmHg 9%
    16:00 +29°C° 0 mm 4 m/s 612 mmHg 9%
    17:00 +29°C° 0 mm 4 m/s 612 mmHg 9%
    18:00 +27°C° 0 mm 4 m/s 612 mmHg 11%
    19:00 +26°C° 0 mm 3 m/s 612 mmHg 13%
    20:00 +24°C° 0 mm 3 m/s 612 mmHg 15%
    21:00 +23°C° 0 mm 2 m/s 612 mmHg 16%
    22:00 +21°C° 0 mm 2 m/s 611 mmHg 18%
    23:00 +21°C° 0 mm 1 m/s 611 mmHg 19%

    29 Mai, Mercredi

    Heure Température Précipitation Vent Pression Humidité
    00:00 +20°C° 0 mm 1 m/s 611 mmHg 20%
    01:00 +20°C° 0 mm 1 m/s 610 mmHg 21%
    02:00 +19°C° 0 mm 1 m/s 610 mmHg 21%
    03:00 +18°C° 0 mm 1 m/s 609 mmHg 22%
    04:00 +18°C° 0 mm 1 m/s 609 mmHg 22%
    05:00 +16°C° 0 mm 1 m/s 609 mmHg 23%
    06:00 +19°C° 0 mm 1 m/s 610 mmHg 20%
    07:00 +21°C° 0 mm 1 m/s 611 mmHg 17%
    08:00 +23°C° 0 mm 1 m/s 611 mmHg 15%
    09:00 +24°C° 0 mm 1 m/s 612 mmHg 13%
    10:00 +25°C° 0 mm 1 m/s 612 mmHg 12%
    11:00 +27°C° 0 mm 1 m/s 612 mmHg 10%
    12:00 +28°C° 0 mm 1 m/s 612 mmHg 10%
    13:00 +28°C° 0 mm 2 m/s 612 mmHg 10%
    14:00 +29°C° 0 mm 2 m/s 612 mmHg 9%
    15:00 +29°C° 0 mm 3 m/s 612 mmHg 9%
    16:00 +29°C° 0 mm 3 m/s 611 mmHg 10%
    17:00 +29°C° 0 mm 4 m/s 611 mmHg 10%
    18:00 +28°C° 0 mm 3 m/s 611 mmHg 12%
    19:00 +26°C° 0 mm 3 m/s 611 mmHg 14%
    20:00 +25°C° 0 mm 3 m/s 611 mmHg 17%
    21:00 +24°C° 0 mm 2 m/s 611 mmHg 18%
    22:00 +23°C° 0 mm 2 m/s 611 mmHg 20%
    23:00 +21°C° 0 mm 2 m/s 611 mmHg 22%
    Voir plus